Location: Melbourne
(37.8170°S, 144.9670°E)
Time: 19:12:23
(UTC+10:00)

Aureole 2 Rocket - Visible Passes

Search period start: 30 July 2016 00:00
Search period end: 09 August 2016 00:00
Orbit: 333 x 608 km, 73.9° (Epoch: 29 July)

Date Brightness Start Highest point End Pass type
(mag) Time Alt. Az. Time Alt. Az. Time Alt. Az.
30 Jul 4.0 06:21:45 14° WNW 06:21:45 14° WNW 06:22:46 10° NW visible
30 Jul 4.0 18:22:26 10° NNE 18:25:58 25° ENE 18:28:26 15° SE visible
30 Jul 5.0 19:58:11 10° WNW 20:01:36 23° WSW 20:02:35 21° SW visible
31 Jul 4.5 05:53:57 11° NNW 05:53:57 11° NNW 05:54:07 10° NNW visible
31 Jul 4.3 19:28:12 10° NW 19:32:07 35° WSW 19:34:37 18° S visible
01 Aug 3.5 18:58:28 10° NNW 19:02:39 57° WSW 19:06:33 10° S visible
02 Aug 2.8 18:28:57 10° NNW 18:33:11 88° ENE 18:37:09 10° SSE visible
03 Aug 3.0 17:59:39 10° N 18:03:45 53° ENE 18:07:35 10° SSE visible
03 Aug 5.8 19:38:13 10° W 19:39:40 12° WSW 19:41:04 10° SW visible
04 Aug 5.5 19:07:16 10° WNW 19:10:02 17° WSW 19:12:41 10° SSW visible
05 Aug 4.9 18:36:58 10° NW 18:40:26 26° WSW 18:43:43 10° S visible
06 Aug 4.1 18:06:59 10° NW 18:10:53 41° WSW 18:14:30 10° S visible
